THORAD AGENA D DEB, 4948

Orbit data source: Space-Track

THORAD AGENA D DEB, 4948 is space debris in SSO originally from a launch on Wed, 08 Apr 1970 UTC launched from the Air Force Western Test Range (AFWTR). Debris objects in space refer to the collection of defunct objects orbiting the Earth. Examples of debris include non-operational satellites, rocket bodies, and fragments generated from explosions, collisions, or faulty payload assembly.

Loading next visibility...
Identifier
4948, 1970-025GJ
Orbit
SSO
Country
Flag of USUS
Related business
Manufacturer
Unknown
Mission
Spacecraft
Bus & Motor
Unknown
Mass
Unknown
Launch date (UTC)
1970-04-08 (56 years ago)
Launch vehicle
Unknown
Launch site
Air Force Western Test Range (AFWTR)
Object type
Payload
Rocket body
Debris
Shape & HBR
Unknown shape, 0.1 m
Radar Cross Section
Small (<0.1 m²)

Expand to show TLE details & history
Last TLE update: 12 hours ago

TLE from 12 hours ago
0 THORAD AGENA D DEB
1 04948U 70025GJ  25287.28198953  .00001490  00000-0  20393-2 0  9991
2 04948  99.4208 142.1456 0207651  40.0253  47.8719 13.51899033705175
Epoch: 2025-10-14T06:46Z
TLE epoch observation values (Epoch: 2025-10-14T06:46:03.895Z)
Latitude
80.6225°
Longitude
-70.56441°
Altitude
976.739 km
Speed
7.421 km/s
True Right ascension
03h 36m 05s
True Declination
80° 34' 07"
Sunlit
Object was in daylight at epoch
Visualization orbit readout
Latitude
Unknown
Longitude
Unknown
Altitude
Unknown
Speed
Unknown
Apparent Right ascension
Unknown
Apparent Declination
Unknown
Sunlit
N/A
Visualization observer readout
Local Sidereal Time
12:54:19
Azimuth
Unknown
Elevation
Unknown
Doppler factor
Unknown
Orbital elements
Apogee altitude
1,217.07 km
Perigee altitude
908.056 km
Semi-major axis
7,440.7 km
Eccentricity
0.02077
Inclination
99.4208°
RAAN
142.1456°
Arg. of periapsis
40.0253°
True anomaly
49.66761°
Mean anomaly
47.8719°
Eccentric anomaly
48.76663°
Mean motion
3.3816 °/min
Orbital period
106.46 mins
BSTAR
0.0020393

Documentation

Showing up to 5 results
|